Fairfield, IA

1:57 PM CDT on May 20, 2018 (GMT -0500)
Fairfield Municipal

Weather History for KFFL - March, 2014

Change the Weather History Date:

Friday, March 21, 2014

  Actual Average Record
Temperature  
Mean Temperature 45 °F -  
Max Temperature 60 °F 49 °F 76 °F (1991)
Min Temperature 30 °F 29 °F 10 °F (2013)
Degree Days  
Heating Degree Days 20    
Moisture  
Dew Point 32 °F    
Average Humidity 66    
Maximum Humidity 93    
Minimum Humidity 38    
Precipitation  
Precipitation 0.00 in - - ()
Sea Level Pressure  
Sea Level Pressure 29.87 in    
Wind  
Wind Speed 12 mph (North)    
Max Wind Speed 30 mph    
Max Gust Speed 38 mph    
Visibility 10 miles    
Events      
Averages and records for this station are not official NWS values.
T = Trace of Precipitation, MM = Missing Value Source: NWS Daily Summary

Daily Weather History Graph

Daily Weather History Graph

Search for Another Location

Airport or City:

Astronomy

Mar. 21, 2014 Rise Set
Actual Time 7:09 AM CDT 7:21 PM CDT
Civil Twilight 6:42 AM CDT 7:48 PM CDT
Nautical Twilight 6:09 AM CDT 8:20 PM CDT
Astronomical Twilight 5:37 AM CDT 8:53 PM CDT
Moon No Moon Rise 9:59 AM CDT (3/21)
Length of Visible Light 13h 06m
Length of Day
12h 11m
Waning Gibbous, 75% of the Moon is Illuminated
Mar 21
Waning Gibbous
Mar 23
Last Quarter
Mar 30
New
Apr 7
First Quarter
Apr 15
Full

Hourly Weather History & Observations

Time (CDT) Temp. Windchill Dew Point Humidity Pressure Visibility Wind Dir Wind Speed Gust Speed Precip Events Conditions
12:15 AM 39.2 °F 32.5 °F 30.2 °F 70% 29.92 in 10.0 mi ENE 10.4 mph - N/A   Clear
12:35 AM 39.2 °F 32.0 °F 30.2 °F 70% 29.92 in 10.0 mi ENE 11.5 mph - N/A   Clear
12:55 AM 37.4 °F 30.3 °F 30.2 °F 75% 29.93 in 10.0 mi ENE 10.4 mph - N/A   Clear
1:15 AM 37.4 °F 30.8 °F 30.2 °F 75% 29.92 in 10.0 mi East 9.2 mph - N/A   Clear
1:35 AM 37.4 °F 30.8 °F 30.2 °F 75% 29.92 in 10.0 mi East 9.2 mph - N/A   Clear
1:55 AM 37.4 °F 30.3 °F 30.2 °F 75% 29.91 in 10.0 mi East 10.4 mph - N/A   Clear
2:15 AM 35.6 °F 28.0 °F 30.2 °F 81% 29.91 in 10.0 mi East 10.4 mph - N/A   Clear
2:35 AM 35.6 °F 27.5 °F 30.2 °F 81% 29.89 in 10.0 mi East 11.5 mph - N/A   Clear
2:55 AM 35.6 °F 28.0 °F 30.2 °F 81% 29.89 in 10.0 mi East 10.4 mph - N/A   Clear
3:15 AM 33.8 °F 26.4 °F 30.2 °F 87% 29.88 in 10.0 mi East 9.2 mph - N/A   Clear
3:35 AM 35.6 °F 27.5 °F 30.2 °F 81% 29.87 in 10.0 mi East 11.5 mph - N/A   Clear
3:55 AM 33.8 °F 26.4 °F 30.2 °F 87% 29.86 in 10.0 mi ESE 9.2 mph - N/A   Clear
4:15 AM 33.8 °F 28.6 °F 28.4 °F 81% 29.86 in 10.0 mi ESE 5.8 mph - N/A   Clear
4:35 AM 32.0 °F 26.4 °F 28.4 °F 87% 29.87 in 10.0 mi ESE 5.8 mph - N/A   Clear
4:55 AM 32.0 °F 27.5 °F 28.4 °F 87% 29.88 in 10.0 mi SE 4.6 mph - N/A   Clear
5:15 AM 32.0 °F 27.5 °F 28.4 °F 87% 29.87 in - SE 4.6 mph - N/A   Unknown
5:35 AM 30.2 °F 24.3 °F 28.4 °F 93% 29.86 in 10.0 mi ESE 5.8 mph - N/A   Clear
5:55 AM 30.2 °F 24.3 °F 26.6 °F 86% 29.86 in 10.0 mi ESE 5.8 mph - N/A   Clear
6:15 AM 30.2 °F 24.3 °F 28.4 °F 93% 29.86 in 10.0 mi ESE 5.8 mph - N/A   Clear
6:35 AM 30.2 °F 21.9 °F 26.6 °F 86% 29.85 in 10.0 mi East 9.2 mph - N/A   Clear
6:55 AM 30.2 °F 23.4 °F 28.4 °F 93% 29.85 in 10.0 mi ESE 6.9 mph - N/A   Clear
7:15 AM 30.2 °F 23.4 °F 28.4 °F 93% 29.85 in 8.0 mi ESE 6.9 mph - N/A   Clear
7:35 AM 32.0 °F 24.2 °F 28.4 °F 87% 29.85 in 8.0 mi SE 9.2 mph - N/A   Clear
7:55 AM 33.8 °F 27.0 °F 30.2 °F 87% 29.83 in 9.0 mi ESE 8.1 mph - N/A   Clear
8:15 AM 35.6 °F 28.6 °F 32.0 °F 87% 29.83 in 9.0 mi SE 9.2 mph - N/A   Clear
8:35 AM 37.4 °F 30.3 °F 32.0 °F 81% 29.82 in 10.0 mi SE 10.4 mph - N/A   Clear
8:55 AM 39.2 °F 32.5 °F 32.0 °F 75% 29.83 in 10.0 mi SE 10.4 mph - N/A   Clear
9:15 AM 41.0 °F 35.2 °F 33.8 °F 76% 29.82 in 10.0 mi SE 9.2 mph - N/A   Clear
9:35 AM 42.8 °F 36.6 °F 33.8 °F 70% 29.82 in 10.0 mi SSE 11.5 mph - N/A   Clear
9:55 AM 44.6 °F 38.1 °F 33.8 °F 66% 29.80 in 10.0 mi SSE 13.8 mph - N/A   Clear
10:15 AM 46.4 °F 40.4 °F 33.8 °F 62% 29.82 in 10.0 mi South 13.8 mph - N/A   Clear
10:35 AM 48.2 °F - 33.8 °F 58% 29.80 in 10.0 mi SSE 11.5 mph - N/A   Clear
10:55 AM 51.8 °F - 35.6 °F 54% 29.80 in 10.0 mi South 10.4 mph 17.3 mph N/A   Clear
11:15 AM 53.6 °F - 35.6 °F 51% 29.79 in 10.0 mi South 11.5 mph - N/A   Clear
11:35 AM 53.6 °F - 35.6 °F 51% 29.79 in 10.0 mi South 10.4 mph 17.3 mph N/A   Clear
11:55 AM 55.4 °F - 35.6 °F 47% 29.78 in 10.0 mi SSW 10.4 mph 16.1 mph N/A   Clear
12:15 PM 57.2 °F - 37.4 °F 48% 29.78 in 10.0 mi SW 12.7 mph - N/A   Clear
12:35 PM 57.2 °F - 35.6 °F 44% 29.78 in 10.0 mi SW 16.1 mph - N/A   Clear
12:55 PM 59.0 °F - 35.6 °F 42% 29.78 in 10.0 mi WSW 16.1 mph 25.3 mph N/A   Clear
1:15 PM 60.8 °F - 35.6 °F 39% 29.78 in 10.0 mi WSW 16.1 mph 27.6 mph N/A   Clear
1:35 PM 59.0 °F - 35.6 °F 42% 29.77 in 10.0 mi West 15.0 mph 26.5 mph N/A   Clear
1:55 PM 59.0 °F - 33.8 °F 39% 29.76 in 10.0 mi West 16.1 mph 21.9 mph N/A   Clear
2:15 PM 57.2 °F - 35.6 °F 44% 29.75 in 10.0 mi NW 25.3 mph - N/A   Clear
2:35 PM 57.2 °F - 35.6 °F 44% 29.76 in 10.0 mi NW 18.4 mph 25.3 mph N/A   Partly Cloudy
2:55 PM 53.6 °F - 33.8 °F 47% 29.75 in 10.0 mi NW 13.8 mph 21.9 mph N/A   Partly Cloudy
3:15 PM 55.4 °F - 33.8 °F 44% 29.77 in 10.0 mi NW 19.6 mph - N/A   Scattered Clouds
3:35 PM 57.2 °F - 33.8 °F 41% 29.78 in 10.0 mi NW 17.3 mph - N/A   Partly Cloudy
3:55 PM 57.2 °F - 33.8 °F 41% 29.79 in 10.0 mi NW 13.8 mph 24.2 mph N/A   Clear
4:15 PM 59.0 °F - 33.8 °F 39% 29.80 in 10.0 mi WNW 16.1 mph - N/A   Scattered Clouds
4:35 PM 59.0 °F - 33.8 °F 39% 29.81 in 10.0 mi NW 18.4 mph - N/A   Partly Cloudy
4:55 PM 59.0 °F - 33.8 °F 39% 29.81 in 10.0 mi WNW 17.3 mph 24.2 mph N/A   Partly Cloudy
5:15 PM 57.2 °F - 32.0 °F 38% 29.82 in 10.0 mi NW 18.4 mph 25.3 mph N/A   Clear
5:35 PM 57.2 °F - 35.6 °F 44% 29.82 in 10.0 mi NW 19.6 mph 26.5 mph N/A   Partly Cloudy
5:55 PM 55.4 °F - 37.4 °F 51% 29.83 in 10.0 mi NNW 16.1 mph - N/A   Scattered Clouds
6:15 PM 55.4 °F - 37.4 °F 51% 29.84 in 10.0 mi NW 16.1 mph 21.9 mph N/A   Mostly Cloudy
6:35 PM 53.6 °F - 35.6 °F 51% 29.85 in 10.0 mi NW 15.0 mph - N/A   Mostly Cloudy
6:55 PM 53.6 °F - 35.6 °F 51% 29.86 in 10.0 mi NW 13.8 mph 20.7 mph N/A   Mostly Cloudy
7:15 PM 51.8 °F - 35.6 °F 54% 29.88 in 10.0 mi NW 21.9 mph 29.9 mph N/A   Mostly Cloudy
7:35 PM 50.0 °F - 35.6 °F 58% 29.89 in 10.0 mi NW 16.1 mph 25.3 mph N/A   Partly Cloudy
7:55 PM 46.4 °F 37.2 °F 35.6 °F 66% 29.91 in 10.0 mi NNW 29.9 mph 36.8 mph N/A   Clear
8:15 PM 44.6 °F 35.1 °F 35.6 °F 71% 29.93 in 10.0 mi NW 27.6 mph - N/A   Partly Cloudy
8:35 PM 42.8 °F 32.7 °F 33.8 °F 70% 29.95 in 10.0 mi NW 27.6 mph 38.0 mph N/A   Clear
8:55 PM 41.0 °F 30.7 °F 32.0 °F 70% 29.97 in 10.0 mi NW 25.3 mph 38.0 mph N/A   Clear
9:15 PM 39.2 °F 28.5 °F 30.2 °F 70% 29.99 in 10.0 mi NW 24.2 mph 35.7 mph N/A   Clear
9:35 PM 37.4 °F 26.1 °F 30.2 °F 75% 30.00 in 10.0 mi NNW 24.2 mph 32.2 mph N/A   Partly Cloudy
9:55 PM 37.4 °F 26.1 °F 30.2 °F 75% 30.02 in 10.0 mi NNW 24.2 mph 33.4 mph N/A   Mostly Cloudy
10:15 PM 37.4 °F 26.4 °F 30.2 °F 75% 30.03 in 10.0 mi NW 23.0 mph 31.1 mph N/A   Overcast
10:35 PM 35.6 °F 23.2 °F 28.4 °F 75% 30.04 in 10.0 mi NW 26.5 mph 33.4 mph N/A   Overcast
10:55 PM 35.6 °F 24.8 °F 28.4 °F 75% 30.06 in 10.0 mi NW 19.6 mph 32.2 mph N/A   Overcast
11:15 PM 35.6 °F 23.7 °F 26.6 °F 70% 30.07 in 10.0 mi NNW 24.2 mph 31.1 mph N/A   Overcast
11:35 PM 35.6 °F 25.2 °F 26.6 °F 70% 30.08 in 10.0 mi NNW 18.4 mph 26.5 mph N/A   Overcast
11:55 PM 33.8 °F 23.5 °F 26.6 °F 75% 30.09 in 10.0 mi NW 16.1 mph 21.9 mph N/A   Overcast